[[{"header":{"parameterUnit":"m.s-1","parameterCategory":1,"la1":30.2992,"la2":30.254,"lo1":-89.0895,"lo2":-89.0443,"dy":0.0025,"dx":0.0025,"nx":19,"ny":19,"refTime":"2026-03-22T09:00:00:Z","depth":0,"parameterNumber":2,"parameterNumberName":"U-component_of_WINDS"},"data":[0,0,0,0.3602,0.3605,0.3742,0.3743,0.3907,0.3908,0,0,0,0,0,0,0,0,0,0,0,0.3549,0.355,0.3602,0.3605,0.3742,0.3743,0.3906,0.3908,0,0,0,0,0,0,0,0,0,0,0,0.3549,0.355,0.3551,0.3606,0.3742,0.3743,0.3906,0.3808,0,0,0,0,0,0,0,0,0,0,0.3677,0.3615,0.355,0.3551,0.3606,0.3742,0.3743,0.3803,0.3814,0.3838,0,0.3851,0,0.3882,0.3918,0.3918,0,0,0,0.3616,0.3606,0.3654,0.3551,0.3607,0.3741,0.3683,0.381,0.3821,0.3852,0.3854,0.386,0.3884,0.3919,0.3919,0.4013,0.4013,0,0,0.3608,0.3568,0.3645,0.3661,0.3633,0.3679,0.3687,0.3817,0.3818,0.3854,0.3864,0.3887,0.3919,0.3921,0.4013,0.4013,0,0,0,0.3579,0.3563,0.3608,0.3654,0.3679,0.3682,0.3692,0.3813,0.383,0.3866,0.3889,0.392,0.3922,0.4013,0.4013,0.3971,0,0,0,0.3575,0.3546,0.3604,0.3581,0.3676,0.3746,0.3684,0.3821,0.3837,0.3888,0.392,0.3924,0.4013,0.4013,0.3972,0.3958,0,0,0,0.3545,0.3543,0.3558,0.3579,0.3636,0.3745,0.3771,0.3826,0.3851,0.3918,0.3924,0.4013,0.4013,0.3973,0.396,0.3972,0,0,0,0.3502,0.3519,0.3556,0.3585,0.3634,0.3716,0.377,0.3835,0.3887,0.3921,0.4013,0.4013,0.3974,0.3962,0.3973,0.3975,0.3972,0,0,0.3502,0.3518,0.3538,0.3575,0.364,0.3699,0.3761,0.3848,0.3893,0.3972,0.3975,0.3972,0.3961,0.3973,0.3966,0.3963,0,0,0,0.3525,0.3539,0.3565,0.3612,0.3677,0.3734,0.3816,0.385,0.3918,0.3923,0.398,0.3975,0.3984,0.3987,0.3984,0.3996,0.4012,0.4012,0.4012,0.3468,0.3522,0.3561,0.3633,0.3678,0.3763,0.3807,0.3868,0.391,0.3923,0.3947,0.3936,0.3937,0.3936,0.3947,0.3952,0.3952,0.3952,0.3952,0.3474,0.3503,0.356,0.3617,0.3677,0.3728,0.3813,0.3842,0.3902,0.3922,0.3932,0.395,0.393,0.3944,0.3949,0.395,0.395,0.395,0.395,0.3443,0.3467,0.3505,0.3581,0.3634,0.3709,0.3763,0.3816,0.3867,0.3878,0.391,0.3911,0.392,0.3889,0.3889,0.3889,0.3889,0.3889,0.3889,0.3395,0.344,0.3477,0.355,0.3589,0.3647,0.3736,0.3778,0.3838,0.3873,0.3874,0.3917,0.3917,0.3917,0.3889,0.3889,0.3889,0.3889,0.3889,0.3382,0.3394,0.345,0.3489,0.3581,0.3633,0.37,0.3781,0.3824,0.385,0.3893,0.3883,0.3904,0.3907,0.3907,0.3878,0.3878,0.3878,0.3878,0.3356,0.3371,0.3443,0.3502,0.3567,0.3634,0.3703,0.3774,0.385,0.3881,0.3894,0.3898,0.3898,0.392,0.3922,0.3923,0.3899,0.3899,0.3899,0.3352,0.3376,0.3421,0.3492,0.357,0.3637,0.3703,0.3774,0.3864,0.3901,0.3908,0.3907,0.3915,0.3914,0.3951,0.3953,0.3956,0,0]},{"header":{"parameterUnit":"m.s-1","parameterCategory":1,"la1":30.2992,"la2":30.254,"lo1":-89.0895,"lo2":-89.0443,"dy":0.0025,"dx":0.0025,"nx":19,"ny":19,"refTime":"2026-03-22T09:00:00:Z","depth":0,"parameterNumber":3,"parameterNumberName":"V-component_of_WINDS"},"data":[0,0,0,3.5561,3.5561,3.5563,3.5563,3.5562,3.5562,0,0,0,0,0,0,0,0,0,0,0,3.5558,3.5558,3.5561,3.5561,3.5563,3.5563,3.5562,3.5562,0,0,0,0,0,0,0,0,0,0,0,3.5558,3.5558,3.5558,3.5561,3.5563,3.5563,3.5562,3.5562,0,0,0,0,0,0,0,0,0,0,3.556,3.5555,3.5558,3.5558,3.5561,3.5563,3.5563,3.5562,3.5562,3.556,0,3.5558,0,3.556,3.5562,3.5562,0,0,0,3.5562,3.5555,3.5558,3.5558,3.5561,3.5563,3.5562,3.5562,3.5562,3.556,3.5558,3.5558,3.556,3.5562,3.5562,3.555,3.555,0,0,3.5562,3.5557,3.5558,3.5558,3.5558,3.5562,3.5562,3.5562,3.5559,3.5558,3.5558,3.556,3.5562,3.5562,3.555,3.555,0,0,0,3.556,3.5556,3.556,3.5558,3.5559,3.5562,3.5562,3.5559,3.556,3.5558,3.556,3.5562,3.5562,3.555,3.555,3.5541,0,0,0,3.556,3.5556,3.5559,3.5556,3.5559,3.5559,3.556,3.5561,3.5561,3.556,3.5562,3.5562,3.555,3.555,3.5541,3.5537,0,0,0,3.5558,3.5556,3.5556,3.5556,3.5557,3.5559,3.5561,3.5561,3.5562,3.5562,3.5562,3.555,3.555,3.5542,3.5538,3.5533,0,0,0,3.5554,3.5545,3.5555,3.5547,3.5557,3.5554,3.5561,3.5558,3.5557,3.5562,3.555,3.555,3.5542,3.5538,3.5534,3.5529,3.5527,0,0,3.554,3.5543,3.5539,3.5548,3.5542,3.5554,3.5547,3.5549,3.5553,3.555,3.555,3.5541,3.5538,3.5533,3.5515,3.5513,0,0,0,3.5533,3.553,3.5529,3.5529,3.5533,3.5536,3.5541,3.5542,3.5541,3.5551,3.5539,3.5537,3.5534,3.5532,3.5531,3.5529,3.5549,3.5549,3.5549,3.5505,3.5513,3.5506,3.5515,3.5515,3.5522,3.5523,3.5526,3.5531,3.5528,3.5527,3.5515,3.5513,3.5511,3.551,3.5526,3.5526,3.5525,3.5525,3.5486,3.5483,3.5494,3.5492,3.55,3.5498,3.5505,3.551,3.5509,3.5516,3.5514,3.552,3.5509,3.5508,3.5525,3.5525,3.5525,3.5525,3.5525,3.5468,3.5469,3.5472,3.5476,3.5477,3.5486,3.5486,3.5493,3.5499,3.5498,3.5498,3.5499,3.55,3.5498,3.5498,3.5498,3.5498,3.5498,3.5498,3.5448,3.5453,3.5453,3.5459,3.5462,3.5466,3.5475,3.5477,3.5482,3.5487,3.5487,3.5493,3.5507,3.551,3.5497,3.5497,3.5497,3.5497,3.5497,3.5426,3.5433,3.5433,3.5436,3.5444,3.5447,3.5457,3.5462,3.5465,3.5465,3.5473,3.5482,3.5485,3.5486,3.5489,3.5471,3.5471,3.5471,3.5471,3.5411,3.5415,3.5417,3.5422,3.5427,3.5438,3.5438,3.5446,3.5455,3.5458,3.5462,3.5466,3.5467,3.547,3.5472,3.5474,3.5453,3.5453,3.5453,3.5398,3.5403,3.5402,3.5413,3.5421,3.5428,3.5429,3.5434,3.5446,3.5452,3.546,3.5461,3.5469,3.5471,3.5476,3.5478,3.5483,0,0]}]]